TimeCDT,TemperatureF,Dew PointF,Humidity,Sea Level PressureIn,VisibilityMPH,Wind Direction,Wind SpeedMPH,Gust SpeedMPH,PrecipitationIn,Events,Conditions,WindDirDegrees,DateUTC
12:53 AM,70.0,64.0,81,29.81,10.0,Calm,Calm,-,N/A,,Clear,0,2013-09-23 05:53:00
1:53 AM,66.9,64.9,93,29.81,10.0,Calm,Calm,-,N/A,,Clear,0,2013-09-23 06:53:00
2:53 AM,66.9,64.0,90,29.81,10.0,Calm,Calm,-,N/A,,Clear,0,2013-09-23 07:53:00
3:53 AM,66.9,63.0,87,29.81,10.0,Calm,Calm,-,N/A,,Partly Cloudy,0,2013-09-23 08:53:00
4:53 AM,66.9,64.0,90,29.81,10.0,North,4.6,-,N/A,,Mostly Cloudy,360,2013-09-23 09:53:00
5:53 AM,68.0,64.0,87,29.83,10.0,North,3.5,-,N/A,,Overcast,10,2013-09-23 10:53:00
6:53 AM,66.9,64.0,90,29.85,10.0,North,3.5,-,N/A,,Mostly Cloudy,360,2013-09-23 11:53:00
7:53 AM,69.1,64.0,84,29.86,10.0,NNE,4.6,-,N/A,,Overcast,20,2013-09-23 12:53:00
8:53 AM,73.9,66.9,79,29.86,10.0,ENE,3.5,-,N/A,,Clear,60,2013-09-23 13:53:00
9:53 AM,81.0,72.0,74,29.86,10.0,Calm,Calm,-,N/A,,Clear,0,2013-09-23 14:53:00
10:53 AM,84.9,73.0,67,29.86,10.0,Variable,4.6,-,N/A,,Clear,0,2013-09-23 15:53:00
11:53 AM,87.1,73.0,63,29.86,10.0,South,4.6,-,N/A,,Partly Cloudy,170,2013-09-23 16:53:00
12:53 PM,87.1,75.0,67,29.85,10.0,SSE,6.9,16.1,N/A,,Partly Cloudy,150,2013-09-23 17:53:00
1:53 PM,88.0,73.0,61,29.83,10.0,SE,6.9,-,N/A,,Partly Cloudy,140,2013-09-23 18:53:00
2:53 PM,86.0,73.9,67,29.82,10.0,SE,9.2,-,N/A,,Scattered Clouds,130,2013-09-23 19:53:00
3:22 PM,89.6,75.2,62,29.81,10.0,SE,10.4,-,N/A,,Overcast,130,2013-09-23 20:22:00
3:42 PM,87.8,75.2,66,29.81,10.0,SE,8.1,-,N/A,,Mostly Cloudy,140,2013-09-23 20:42:00
3:53 PM,88.0,75.0,65,29.81,10.0,SSE,10.4,-,N/A,,Scattered Clouds,150,2013-09-23 20:53:00
4:53 PM,87.1,75.0,67,29.82,10.0,SE,10.4,-,N/A,,Scattered Clouds,140,2013-09-23 21:53:00
5:53 PM,84.0,75.9,76,29.83,10.0,SE,6.9,-,N/A,,Partly Cloudy,130,2013-09-23 22:53:00
6:53 PM,82.0,77.0,85,29.84,10.0,Calm,Calm,-,N/A,,Clear,0,2013-09-23 23:53:00
7:53 PM,80.1,75.9,87,29.84,10.0,East,3.5,-,N/A,,Clear,80,2013-09-24 00:53:00
8:53 PM,77.0,75.0,94,29.87,10.0,Calm,Calm,-,N/A,,Clear,0,2013-09-24 01:53:00
9:53 PM,77.0,75.0,94,29.88,10.0,Calm,Calm,-,N/A,,Mostly Cloudy,0,2013-09-24 02:53:00
10:53 PM,78.1,75.9,93,29.88,10.0,NE,3.5,-,N/A,,Overcast,40,2013-09-24 03:53:00
11:53 PM,77.0,75.0,94,29.87,10.0,East,4.6,-,N/A,,Scattered Clouds,80,2013-09-24 04:53:00